Moab, UT

5:58 AM MDT on July 23, 2017 (GMT -0600)
Canyonlands

Weather History for KCNY - December, 2011

Change the Weather History Date:

Sunday, December 18, 2011

  Actual Average Record
Temperature  
Mean Temperature 25 °F 26 °F  
Max Temperature 34 °F 36 °F 56 °F (1950)
Min Temperature 16 °F 15 °F 0 °F (2013)
Degree Days  
Heating Degree Days 40 39  
Month to date heating degree days 666  
Since 1 July heating degree days 1875  
Cooling Degree Days 0 0  
Month to date cooling degree days 0  
Year to date cooling degree days 1289  
Moisture  
Dew Point 20 °F    
Average Humidity 82    
Maximum Humidity 93    
Minimum Humidity 64    
Precipitation  
Precipitation 0.00 in 0.02 in 0.46 in (1978)
Month to date precipitation 0.30  
Year to date precipitation 8.50  
Sea Level Pressure  
Sea Level Pressure 30.22 in    
Wind  
Wind Speed 2 mph (NW)    
Max Wind Speed 8 mph    
Max Gust Speed -    
Visibility 10 miles    
Events      
T = Trace of Precipitation, MM = Missing Value Source: NWS Daily Summary

Daily Weather History Graph

Daily Weather History Graph

Search for Another Location

Airport or City:

Trip Planner

Search our weather history database for the weather conditions in past years. The results will help you decide how hot, cold, wet, or windy it might be!

Date:

Astronomy

Dec. 18, 2011 Rise Set
Actual Time 7:31 AM MST 4:59 PM MST
Civil Twilight 7:01 AM MST 5:29 PM MST
Nautical Twilight 6:28 AM MST 6:02 PM MST
Astronomical Twilight 5:56 AM MST 6:35 PM MST
Moon 12:39 AM MST (12/18) 12:23 PM MST (12/18)
Length of Visible Light 10h 27m
Length of Day
9h 27m
Last Quarter, 41% of the Moon is Illuminated
Dec 18
Last Quarter
Dec 24
New
Dec 31
First Quarter
Jan 9
Full
Jan 16
Last Quarter

Hourly Weather History & Observations

Time (MST) Temp. Windchill Dew Point Humidity Pressure Visibility Wind Dir Wind Speed Gust Speed Precip Events Conditions
12:53 AM 21.9 °F - 19.0 °F 89% 30.39 in 10.0 mi Calm Calm - N/A   Clear
1:53 AM 21.2 °F - 17.6 °F 86% 30.31 in 10.0 mi Calm Calm - N/A   Clear
2:53 AM 21.9 °F - 19.0 °F 89% 30.36 in 10.0 mi Calm Calm - N/A   Clear
3:53 AM 19.0 °F - 17.1 °F 92% 30.37 in 10.0 mi Calm Calm - N/A   Clear
4:53 AM 19.4 °F - 17.6 °F 93% 30.26 in 10.0 mi Calm Calm - N/A   Clear
5:53 AM 16.0 °F 10.4 °F 14.0 °F 92% 30.38 in 10.0 mi WSW 3.5 mph - N/A   Clear
6:53 AM 19.0 °F - 16.0 °F 88% 30.39 in 10.0 mi Calm Calm - N/A   Clear
7:53 AM 17.1 °F - 15.1 °F 92% 30.37 in 10.0 mi Calm Calm - N/A   Mostly Cloudy
8:53 AM 23.0 °F - 19.9 °F 88% 30.35 in 10.0 mi Calm Calm - N/A   Mostly Cloudy
9:53 AM 25.0 °F 16.3 °F 21.9 °F 88% 30.35 in 10.0 mi NNW 8.1 mph - N/A   Clear
11:53 AM 30.9 °F 25.2 °F 23.0 °F 72% 30.26 in 10.0 mi NW 5.8 mph - N/A   Clear
12:53 PM 33.8 °F 27.7 °F 23.0 °F 65% 30.13 in 10.0 mi NW 6.9 mph - N/A   Clear
1:53 PM 34.0 °F 27.2 °F 23.0 °F 64% 30.18 in 10.0 mi NNW 8.1 mph - N/A   Overcast
2:53 PM 34.0 °F 28.0 °F 23.0 °F 64% 30.16 in 10.0 mi NNW 6.9 mph - N/A   Overcast
3:53 PM 33.8 °F 27.0 °F 23.0 °F 65% 30.06 in 10.0 mi NNW 8.1 mph - N/A   Overcast
4:53 PM 30.9 °F 23.5 °F 21.9 °F 69% 30.14 in 10.0 mi NNW 8.1 mph - N/A   Scattered Clouds
5:53 PM 30.0 °F 25.2 °F 23.0 °F 75% 30.14 in 10.0 mi NW 4.6 mph - N/A   Overcast
6:53 PM 26.1 °F - 21.9 °F 84% 30.13 in 10.0 mi Calm Calm - N/A   Partly Cloudy
7:53 PM 27.0 °F - 21.0 °F 78% 30.12 in 10.0 mi Calm Calm - N/A   Mostly Cloudy
8:53 PM 25.0 °F - 21.0 °F 85% 30.09 in 10.0 mi Calm Calm - N/A   Scattered Clouds
9:53 PM 25.0 °F - 21.9 °F 88% 30.08 in 10.0 mi Calm Calm - N/A   Overcast
10:53 PM 28.0 °F - 23.0 °F 81% 30.05 in 10.0 mi Calm Calm - N/A   Overcast
11:53 PM 27.0 °F - 24.1 °F 89% 30.03 in 10.0 mi Calm Calm - N/A   Overcast